CZ-6A DEB

Satellite information

Favourite Embed

Satellite Type and Status

DEBRISIN ORBIT

Key statistics

Satellite CZ-6A DEB at a glance.

Uptime

968

Days in orbit

Revolutions

≈ 14.1

Per day

Orbit

SSO

Sun Synchronous Orbit

Inclination

98.8

Latest

Satellite identification and parameters

Extended collection of information and parameters for CZ-6A DEB.

Object identification

Identified? True

Debris? True

Object name: CZ-6A DEB

International designator: 2022-151AFL

Object number (NORAD): 56636

Object ID (CCSDS): 56636

Country: PEOPLES REPUBLIC OF CHINA (PRC)

Current information (Y/N): Y

RCS size: SMALL

Orbital parameters

Period: 102.037 minutes

Inclination: 98.8168 deg

SMA: 7233.248 km

Apoapsis: 907.986 km

Periapsis: 802.24 km

RAAN: 182.9513 deg

Eccentricy: 0.0073097

Argument of periapsis: 276.9657 deg

Mean anomaly: 82.3204 deg

Mean motion: 14.11246017 rev/day

Mean motion (dot): 0.00001074 rev/day2

B* drag term: 0.00060395 1/REarth

Two-line elements (TLE)

Creation date: July 4, 2025, 6:39 p.m.

Reference frame: TEME

Reference center: EARTH

Epoch: July 4, 2025, 11:11 a.m. UTC

TLE line 0: 0 CZ-6A DEB

TLE line 1: 1 56636U 22151AFL 25185.46616814 .00001074 00000-0 60395-3 0 9992

TLE line 2: 2 56636 98.8168 182.9513 0073097 276.9657 82.3204 14.11246017117831

Live tracking on map

Real-time ground track for satellite CZ-6A DEB.

In-orbit conjunctions

A list of the most updated potential collisions computed for object CZ-6A DEB.

Target Orbit TCA Probability of collision Miss distance Type
CZ-8 R/B LEO 2025-06-06 10:05:09 0.0001457534 122.0 (m) ROCKET BODY
SL-3 R/B LEO 2025-03-09 05:32:20 0.0003860338 266.0 (m) ROCKET BODY
CZ-6A DEB LEO 2025-02-19 18:49:49 0.0001237362 515.0 (m) DEBRIS
SL-3 R/B LEO 2024-10-03 13:19:43 0.0001265571 643.0 (m) ROCKET BODY
BREEZE-KM R/B SSO 2024-09-06 04:45:01 0.0002450747 527.0 (m) ROCKET BODY

Associated space launch

Chinese satellite reported for atmospheric/ocean/environmental/spatial parameter research purposes, details TBD.

CZ-6A DEB was lifted into orbit during the mission ‘Long March 6A | Yunhai 3’, on board a Long March 6A space rocket.

The launch took place on Nov. 11, 2022, 10:52 p.m. from Launch Complex 9A.

For more information about the launch, click the button.

Launch to space Long March 6A | Yunhai 3
Long March 6A | Yunhai 3

Agency: N/A

Status: Launch Successful

Launch date: Nov. 11, 2022, 10:52 p.m. UTC

Rocket: Long March 6A

Launch pad: Launch Complex 9A

Location: Taiyuan Satellite Launch Center, People's Republic of China

...

Latest news about this satellite

There are no fresh news available about this satellite. Check back as we update our databases every day.


Newsletter sign-up

Weekly statistics, charts and insights to help you stay on top of the space industry.